TimeCST,TemperatureF,Dew PointF,Humidity,Sea Level PressureIn,VisibilityMPH,Wind Direction,Wind SpeedMPH,Gust SpeedMPH,PrecipitationIn,Events,Conditions,WindDirDegrees,DateUTC
12:19 AM,39.2,35.6,87,30.22,10.0,NE,10.4,-,N/A,,Scattered Clouds,40,2013-01-14 06:19:00
12:26 AM,39.2,35.6,87,30.22,10.0,NNE,8.1,-,N/A,,Mostly Cloudy,30,2013-01-14 06:26:00
12:38 AM,39.2,35.6,87,30.22,10.0,NNE,8.1,-,N/A,,Mostly Cloudy,30,2013-01-14 06:38:00
12:56 AM,37.9,35.1,89,30.22,10.0,NNE,9.2,-,0.00,,Mostly Cloudy,30,2013-01-14 06:56:00
1:35 AM,37.4,33.8,87,30.22,10.0,NNE,12.7,-,0.00,,Overcast,20,2013-01-14 07:35:00
1:56 AM,37.0,33.1,86,30.23,10.0,NE,12.7,-,0.00,,Mostly Cloudy,40,2013-01-14 07:56:00
2:56 AM,37.0,32.0,82,30.21,10.0,NE,12.7,20.7,N/A,,Overcast,40,2013-01-14 08:56:00
3:56 AM,35.1,30.0,82,30.20,10.0,NE,18.4,-,N/A,,Overcast,50,2013-01-14 09:56:00
4:56 AM,34.0,30.0,85,30.21,10.0,NNE,13.8,19.6,N/A,,Overcast,30,2013-01-14 10:56:00
5:56 AM,34.0,28.9,82,30.24,10.0,NNE,13.8,-,N/A,,Overcast,20,2013-01-14 11:56:00
6:56 AM,33.1,28.0,82,30.25,10.0,North,9.2,-,N/A,,Overcast,10,2013-01-14 12:56:00
7:56 AM,32.0,28.0,85,30.27,7.0,North,16.1,20.7,0.00,,Overcast,360,2013-01-14 13:56:00
8:56 AM,32.0,26.1,79,30.29,10.0,North,19.6,25.3,0.00,Rain,Light Rain,360,2013-01-14 14:56:00
9:56 AM,32.0,26.1,79,30.31,10.0,North,15.0,24.2,0.00,Rain,Light Rain,10,2013-01-14 15:56:00
10:03 AM,30.2,24.8,80,30.29,10.0,North,19.6,26.5,0.00,,Overcast,360,2013-01-14 16:03:00
10:56 AM,32.0,25.0,75,30.29,10.0,NNE,16.1,21.9,0.00,,Overcast,20,2013-01-14 16:56:00
11:17 AM,30.2,26.6,86,30.28,6.0,NNE,11.5,-,0.02,Rain,Light Ice Pellets,20,2013-01-14 17:17:00
11:56 AM,32.0,27.0,82,30.26,7.0,NNE,11.5,-,0.02,,Overcast,20,2013-01-14 17:56:00
12:56 PM,34.0,27.0,75,30.24,10.0,NE,10.4,-,N/A,,Overcast,50,2013-01-14 18:56:00
1:56 PM,35.1,27.0,72,30.24,10.0,North,10.4,-,0.00,,Overcast,360,2013-01-14 19:56:00
2:56 PM,37.0,28.0,70,30.24,10.0,North,10.4,-,N/A,,Overcast,360,2013-01-14 20:56:00
3:56 PM,37.9,26.1,62,30.25,10.0,ENE,13.8,-,N/A,,Mostly Cloudy,70,2013-01-14 21:56:00
4:56 PM,37.0,25.0,62,30.25,10.0,NE,11.5,-,N/A,,Overcast,50,2013-01-14 22:56:00
5:56 PM,36.0,26.1,67,30.25,10.0,NE,9.2,-,N/A,,Overcast,50,2013-01-14 23:56:00
6:56 PM,35.1,26.1,70,30.25,10.0,NE,9.2,-,N/A,,Overcast,50,2013-01-15 00:56:00
7:56 PM,34.0,26.1,73,30.24,10.0,East,9.2,-,N/A,,Overcast,80,2013-01-15 01:56:00
8:56 PM,33.1,26.1,75,30.24,10.0,ENE,6.9,-,N/A,,Overcast,60,2013-01-15 02:56:00
9:56 PM,32.0,26.1,79,30.23,10.0,ENE,16.1,-,N/A,,Overcast,70,2013-01-15 03:56:00
10:56 PM,32.0,25.0,75,30.22,10.0,NE,13.8,-,N/A,,Overcast,40,2013-01-15 04:56:00
11:56 PM,30.9,24.1,76,30.20,10.0,NNE,12.7,-,N/A,,Overcast,20,2013-01-15 05:56:00